CAPE
0 0 0 0 0 0 0 0 0 0 0 0 0 0 0 0 0 0 0 0 0 0 0 0 0 0 0 0 0 0 0 0 0 0 0 0 0 0 0 0 0 0 0 0 0
0 0 0 0 0 0 0 0 0 0 0 0 0 0 0 0 0 0 0 0 0 0 0 0 0 0 0 0 0 0 0 0 0 0 0 0 0 0 0 0 0 0 0 0 0
0 0 0 0 0 0 0 0 0 0 0 0 0 0 0 0 0 0 0 0 0 0 0 0 0 0 0 0 0 0 0 0 0 0 0 0 0 0 0 0 0 0 0 0 0
0 0 0 0 0 0 0 0 0 0 0 0 0 0 0 0 0 0 0 0 0 0 0 0 0 0 0 0 0 0 0 0 0 0 0 0 0 0 0 0 0 0 0 0 0
0 0 0 0 0 0 0 0 0 0 0 0 0 0 0 0 0 0 0 0 0 0 0 0 0 0 0 0 0 0 0 0 0 0 0 0 0 0 0 0 0 0 0 0 0
0 0 0 0 0 0 0 0 0 0 0 0 0 0 0 0 0 0 0 0 0 0 0 0 0 0 0 0 0 0 0 0 0 0 0 0 0 0 0 0 0 0 0 0 0
0 0 0 0 0 0 0 0 0 0 0 0 0 0 0 0 0 0 0 0 0 0 0 0 0 0 0 0 0 0 0 0 0 0 0 0 0 0 0 0 0 0 0 0 0
0 0 0 0 0 0 0 0 0 0 0 0 0 0 0 0 0 0 0 0 0 0 0 0 0 0 0 0 0 0 0 0 0 0 0 0 0 0 0 0 0 0 0 0 0
0 0 0 0 0 0 0 0 0 0 0 0 0 0 0 0 0 0 0 0 0 0 0 0 0 0 0 0 0 0 0 0 0 0 0 0 0 0 0 0 0 0 0 0 0
0 0 0 0 0 0 0 0 0 0 0 0 0 0 0 0 0 0 0 0 0 0 0 0 0 0 0 0 0 0 0 0 0 0 0 0 0 0 0 0 0 0 0 0 0
0 0 0 0 0 0 0 0 0 0 0 0 0 0 0 0 0 0 0 0 0 0 0 0 0 0 0 0 0 0 0 0 0 0 0 0 0 0 0 0 0 0 0 0 0
2 0 0 0 0 2 0 0 0 0 0 0 0 0 0 0 0 0 0 0 0 0 0 0 0 0 0 0 0 0 0 0 0 0 0 0 0 0 0 0 0 0 0 0 0
1 0 0 0 0 11 1 0 0 0 0 0 0 0 0 0 0 0 0 0 0 0 0 0 0 0 0 0 0 0 0 0 0 0 0 0 0 0 0 0 0 0 0 0 0
1 1 0 0 12 3 1 0 0 0 0 0 0 0 0 0 0 0 0 0 0 0 0 0 0 0 0 0 0 0 0 0 0 0 0 0 0 0 0 0 0 0 0 0 0
2 2 0 8 4 2 0 0 0 0 0 0 0 0 0 0 0 0 0 0 0 0 0 0 0 0 0 0 0 0 0 0 0 0 0 0 0 0 0 0 0 0 0 0 0
0 1 5 8 9 0 0 0 0 0 0 0 0 0 0 0 0 0 0 0 0 0 0 0 0 0 0 0 0 0 0 0 0 0 0 0 0 0 0 0 0 0 0 0 0
0 1 7 7 8 0 0 0 8 0 0 0 0 0 0 0 0 0 0 0 0 0 0 0 0 0 0 0 0 0 0 0 0 0 0 0 0 0 0 0 0 0 0 0 0
4 1 0 10 0 0 0 18 0 0 0 0 0 0 0 0 0 0 0 0 0 0 0 0 0 0 0 0 0 0 0 0 0 0 0 0 0 0 0 0 0 0 0 0 0
0 1 1 2 0 0 5 7 0 0 0 0 0 0 0 0 0 0 0 0 0 0 0 0 0 0 0 0 0 0 0 0 0 0 0 0 0 0 0 0 0 0 0 0 0
2 2 3 0 0 4 6 2 0 0 0 0 0 0 0 0 0 0 0 0 0 0 0 0 0 0 0 0 0 0 0 0 0 0 0 0 0 0 0 0 0 0 0 0 0
14 5 1 2 1 7 4 0 1 0 0 0 0 0 0 0 0 0 0 0 0 0 0 0 0 0 0 0 0 0 0 0 0 0 0 0 0 0 0 0 0 0 0 0 0
3 14 1 3 1 17 7 0 1 8 6 0 0 0 0 0 0 0 0 0 0 0 0 0 0 0 0 0 0 0 0 0 0 0 0 0 0 0 0 0 0 0 0 0 0
2 5 1 16 3 7 10 2 1 1 1 0 0 0 0 0 0 0 0 0 0 0 0 0 0 0 0 0 0 0 0 0 0 0 0 0 0 0 0 0 0 0 0 0 0
0 0 0 0 0 3 5 5 5 3 1 1 0 0 0 0 0 0 0 0 0 0 0 0 0 0 0 0 0 0 0 0 0 0 0 0 0 0 0 0 0 0 0 0 0
0 0 0 2 0 0 0 3 6 3 0 0 0 0 0 0 0 0 0 0 0 0 0 0 0 0 0 0 0 0 0 0 0 0 0 0 0 0 0 0 0 0 0 0 0
3 0 0 0 0 0 1 4 1 5 0 0 0 0 0 0 0 0 0 0 0 0 0 0 0 0 0 0 0 0 0 0 0 0 0 0 0 0 0 0 0 0 0 0 0
2 1 0 0 0 2 2 1 0 0 0 0 0 0 0 0 0 0 0 0 0 0 0 1 0 0 0 0 0 0 0 0 0 0 0 0 0 0 0 0 0 0 0 0 0
CIN
-0 -0 -0 -0 -0 -0 -0 -0 -0 -0 -0 -0 -0 -0 -0 -0 -0 -0 -0 -0 -0 -0 -0 -0 -0 -0 -0 -0 -0 -0 -0 -0 -0 -0 -0 -0 -0 -0 -0 -0 -0 -0 -0 -0 -0
-0 -0 -0 -0 -0 -0 -0 -0 -0 -0 -0 -0 -0 -0 -0 -0 -0 -0 -0 -0 -0 -0 -0 -0 -0 -0 -0 -0 -0 -0 -0 -0 -0 -0 -0 -0 -0 -0 -0 -0 -0 -0 -0 -0 -0
-0 -0 -0 -0 -0 -0 -0 -0 -0 -0 -0 -0 -0 -0 -0 -0 -0 -0 -0 -0 -0 -0 -0 -0 -0 -0 -0 -0 -0 -0 -0 -0 -0 -0 -0 -0 -0 -0 -0 -0 -0 -0 -0 -0 -0
-0 -0 -0 -0 -0 -0 -0 -0 -0 -0 -0 -0 -0 -0 -0 -0 -0 -0 -0 -0 -0 -0 -0 -0 -0 -0 -0 -0 -0 -0 -0 -0 -0 -0 -0 -0 -0 -0 -0 -0 -0 -0 -0 -0 -0
-0 -0 -0 -0 -0 -0 -0 -0 -0 -0 -0 -0 -0 -0 -0 -0 -0 -0 -0 -0 -0 -0 -0 -0 -0 -0 -0 -0 -0 -0 -0 -0 -0 -0 -0 -0 -0 -0 -0 -0 -0 -0 -0 -0 -0
-0 -0 -0 -0 -0 -0 -0 -0 -0 -0 -0 -0 -0 -0 -0 -0 -0 -0 -0 -0 -0 -0 -0 -0 -0 -0 -0 -0 -0 -0 -0 -0 -0 -0 -0 -0 -0 -0 -0 -0 -0 -0 -0 -0 -0
-0 -0 -0 -0 -0 -0 -0 -0 -0 -0 -0 -0 -0 -0 -0 -0 -0 -0 -0 -0 -0 -0 -0 -0 -0 -0 -0 -0 -0 -0 -0 -0 -0 -0 -0 -0 -0 -0 -0 -0 -0 -0 -0 -0 -0
-0 -0 -0 -0 -0 -0 -0 -0 -0 -0 -0 -0 -0 -0 -0 -0 -0 -0 -0 -0 -0 -0 -0 -0 -0 -0 -0 -0 -0 -0 -0 -0 -0 -0 -0 -0 -0 -0 -0 -0 -0 -0 -0 -0 -0
-0 -0 -0 -0 -0 -0 -0 -0 -0 -0 -0 -0 -0 -0 -0 -0 -0 -0 -0 -0 -0 -0 -0 -0 -0 -0 -0 -0 -0 -0 -0 -0 -0 -0 -0 -0 -0 -0 -0 -0 -0 -0 -0 -0 -0
-0 -0 -0 -0 -0 -0 -0 -0 -0 -0 -0 -0 -0 -0 -0 -0 -0 -0 -0 -0 -0 -0 -0 -0 -0 -0 -0 -0 -0 -0 -0 -0 -0 -0 -0 -0 -0 -0 -0 -0 -0 -0 -0 -0 -0
-0 -0 -0 -0 -0 -0 -0 -0 -0 -0 -0 -0 -0 -0 -0 -0 -0 -0 -0 -0 -0 -0 -0 -0 -0 -0 -0 -0 -0 -0 -0 -0 -0 -0 -0 -0 -0 -0 -0 -0 -0 -0 -0 -0 -0
-2 -0 -0 -0 -0 -0 -0 -0 -0 -0 -0 -0 -0 -0 -0 -0 -0 -0 -0 -0 -0 -0 -0 -0 -0 -0 -0 -0 -0 -0 -0 -0 -0 -0 -0 -0 -0 -0 -0 -0 -0 -0 -0 -0 -0
-4 -2 -0 -0 -0 -0 -0 -0 -0 -0 -0 -0 -0 -0 -0 -0 -0 -0 -0 -0 -0 -0 -0 -0 -0 -0 -0 -0 -0 -0 -0 -0 -0 -0 -0 -0 -0 -0 -0 -0 -0 -0 -0 -0 -0
-6 -5 -0 -0 -0 -1 -0 -0 -0 -0 -0 -0 -0 -0 -0 -0 -0 -0 -0 -0 -0 -0 -0 -0 -0 -0 -0 -0 -0 -0 -0 -0 -0 -0 -0 -0 -0 -0 -0 -0 -0 -0 -0 -0 -0
-6 -5 -0 -4 -6 -0 -0 -0 -0 -0 -0 -0 -0 -0 -0 -0 -0 -0 -0 -0 -0 -0 -0 -0 -0 -0 -0 -0 -0 -0 -0 -0 -0 -0 -0 -0 -0 -0 -0 -0 -0 -0 -0 -0 -0
-0 -4 -4 -1 -6 -0 -0 -0 -0 -0 -0 -0 -0 -0 -0 -0 -0 -0 -0 -0 -0 -0 -0 -0 -0 -0 -0 -0 -0 -0 -0 -0 -0 -0 -0 -0 -0 -0 -0 -0 -0 -0 -0 -0 -0
-0 -3 -1 -0 -0 -0 -0 -0 -4 -0 -0 -0 -0 -0 -0 -0 -0 -0 -0 -0 -0 -0 -0 -0 -0 -0 -0 -0 -0 -0 -0 -0 -0 -0 -0 -0 -0 -0 -0 -0 -0 -0 -0 -0 -0
-87 -29 -0 -0 -0 -0 -0 -7 -0 -0 -0 -0 -0 -0 -0 -0 -0 -0 -0 -0 -0 -0 -0 -0 -0 -0 -0 -0 -0 -0 -0 -0 -0 -0 -0 -0 -0 -0 -0 -0 -0 -0 -0 -0 -0
-0 -0 -0 -0 -0 -1 -6 -0 -0 -0 -0 -0 -0 -0 -0 -0 -0 -0 -0 -0 -0 -0 -0 -0 -0 -0 -0 -0 -0 -0 -0 -0 -0 -0 -0 -0 -0 -0 -0 -0 -0 -0 -0 -0 -0
-0 -0 -0 -0 -0 -2 -4 -0 -0 -0 -0 -0 -0 -0 -0 -0 -0 -0 -0 -0 -0 -0 -0 -0 -0 -0 -0 -0 -0 -0 -0 -0 -0 -0 -0 -0 -0 -0 -0 -0 -0 -0 -0 -0 -0
-3 -10 -1 -0 -0 -1 -0 -0 -0 -6 -0 -0 -0 -0 -0 -0 -0 -0 -0 -0 -0 -0 -0 -0 -0 -0 -0 -0 -0 -0 -0 -0 -0 -0 -0 -0 -0 -0 -0 -0 -0 -0 -0 -0 -0
-14 -0 -0 -0 -0 -0 -0 -0 -3 -2 -3 -0 -0 -0 -0 -0 -0 -0 -0 -0 -0 -0 -0 -0 -0 -0 -0 -0 -0 -0 -0 -0 -0 -0 -0 -0 -0 -0 -0 -0 -0 -0 -0 -0 -0
-10 -2 -0 -2 -0 -0 -0 -0 -0 -2 -1 -0 -0 -0 -0 -0 -0 -0 -0 -0 -0 -0 -0 -0 -0 -0 -0 -0 -0 -0 -0 -0 -0 -0 -0 -0 -0 -0 -0 -0 -0 -0 -0 -0 -0
-0 -0 -0 -0 -0 -0 -0 -0 -0 -1 -2 -8 -0 -0 -0 -0 -0 -0 -0 -0 -0 -0 -0 -0 -0 -0 -0 -0 -0 -0 -0 -0 -0 -0 -0 -0 -0 -0 -0 -0 -0 -0 -0 -0 -0
-0 -1 -0 -0 -0 -6 -0 -0 -0 -0 -0 -0 -0 -0 -0 -0 -0 -0 -0 -0 -0 -0 -0 -0 -0 -0 -0 -0 -0 -0 -0 -0 -0 -0 -0 -0 -0 -0 -0 -0 -0 -0 -0 -0 -0
-3 -0 -0 -0 -0 -0 -0 -0 -1 -0 -0 -0 -0 -0 -0 -0 -0 -0 -0 -0 -0 -0 -0 -0 -0 -0 -0 -0 -0 -0 -0 -0 -0 -0 -0 -0 -0 -0 -0 -0 -0 -0 -0 -0 -0
-0 -0 -2 -0 -0 -1 -0 -0 -0 -0 -0 -0 -0 -0 -0 -0 -0 -0 -0 -0 -0 -0 -0 -0 -0 -0 -0 -0 -0 -0 -0 -0 -0 -0 -0 -0 -0 -0 -0 -0 -0 -0 -0 -0 -0
Wind_Speed
15 15 15 16 16 16 16 17 17 18 19 20 20 21 22 23 22 19 19 16 16 13 14 14 16 17 17 17 17 16 16 15 12 12 12 13 13 13 13 13 15 16 16 18 22
17 18 18 17 18 18 18 18 19 20 21 22 22 22 23 23 21 19 18 17 15 12 13 13 14 16 16 17 17 17 16 13 12 11 12 13 13 14 13 16 15 15 19 21 21
20 20 20 19 20 20 20 20 20 21 22 23 23 23 23 22 20 17 18 15 12 13 13 13 14 16 17 18 18 16 15 12 12 11 12 13 14 14 14 15 15 17 18 21 21
23 22 22 21 21 21 21 22 22 23 23 24 24 24 23 19 20 15 16 13 11 13 12 13 16 18 18 17 16 16 14 13 14 12 13 13 15 16 14 14 16 16 17 20 22
25 24 24 23 23 23 23 23 24 24 25 25 25 24 20 20 17 16 15 13 11 13 13 14 17 17 17 15 15 14 15 14 15 15 15 16 14 15 16 12 13 15 18 21 22
27 27 26 25 25 24 24 25 25 26 26 26 25 22 19 23 16 16 14 13 13 13 14 15 15 15 15 16 15 15 16 18 19 16 15 15 16 14 13 10 14 16 19 21 23
29 28 27 27 26 25 25 26 26 28 27 26 23 20 21 23 16 15 15 15 14 14 14 15 13 15 14 16 15 17 20 23 19 18 14 12 16 11 8 9 14 18 19 21 23
30 29 28 27 27 26 26 27 28 27 24 22 20 20 25 19 16 15 14 15 14 15 14 13 13 14 16 14 19 20 22 22 17 16 15 12 19 11 7 9 15 17 19 21 23
31 29 29 28 27 26 26 27 27 23 21 22 22 22 27 17 18 15 14 14 12 14 14 13 14 16 15 18 23 22 23 22 23 17 17 14 19 12 9 15 17 19 20 20 21
31 30 29 28 27 26 27 27 24 24 22 21 21 25 21 20 15 12 13 10 14 12 14 16 17 18 18 18 25 22 23 21 21 20 18 18 15 13 18 18 19 19 19 20 18
32 30 28 27 26 25 25 24 28 28 24 25 22 21 19 16 14 15 12 12 13 16 18 18 20 19 16 13 22 22 22 23 23 22 21 18 19 19 20 19 17 17 16 15 16
31 30 27 26 24 22 22 25 24 23 33 27 27 27 22 17 21 16 11 15 17 20 16 21 24 20 20 19 21 23 26 27 29 25 23 26 27 23 21 18 14 11 10 10 12
33 29 26 24 23 23 24 23 20 22 32 33 27 27 24 19 23 17 11 17 20 21 19 25 26 16 20 23 23 24 26 28 28 25 24 29 34 23 22 18 14 9 8 9 9
33 29 26 22 25 23 27 22 18 20 35 36 28 27 22 18 27 19 14 18 22 23 22 28 25 25 26 28 25 31 24 25 26 26 29 20 32 23 17 13 10 7 7 7 7
33 30 26 21 23 23 23 15 11 18 43 24 22 19 17 20 19 23 18 23 25 24 23 29 25 25 29 29 23 31 22 20 21 23 26 23 27 25 16 13 10 9 8 7 6
36 32 27 28 26 23 14 8 13 27 48 24 18 19 17 19 18 16 17 18 19 24 28 30 25 25 26 23 19 14 16 19 20 22 31 22 21 28 18 14 13 6 5 5 4
32 32 31 27 31 16 11 14 28 36 26 29 24 19 19 20 21 20 19 20 22 26 30 30 28 25 20 20 17 15 15 25 27 26 31 24 23 26 18 18 17 7 5 4 3
32 28 30 30 24 19 19 24 40 41 36 26 22 20 23 21 25 24 22 24 24 24 27 27 32 18 17 19 19 16 17 22 30 29 29 22 27 24 16 15 16 11 5 4 5
31 35 34 31 25 23 26 38 47 40 31 32 29 34 30 29 27 25 27 29 24 20 25 25 29 20 17 17 15 18 21 19 25 27 34 30 28 26 19 18 15 11 6 7 7
32 32 38 31 26 28 37 47 47 41 31 31 37 31 35 31 29 28 28 28 29 21 23 23 28 21 18 16 19 18 13 23 25 35 38 32 32 29 19 15 14 12 9 9 9
40 42 35 30 32 40 47 49 42 32 28 33 35 34 34 32 31 34 34 30 22 21 21 20 23 23 18 22 20 20 21 20 20 25 34 40 33 19 18 15 14 15 13 12 12
31 40 29 29 43 47 50 46 40 38 38 36 35 35 36 31 33 35 33 31 20 18 21 21 22 28 26 24 23 22 23 21 30 33 31 35 38 17 18 18 18 18 16 13 12
34 35 25 29 46 47 43 45 44 40 35 39 40 36 34 34 37 37 36 29 21 20 19 19 25 31 32 29 25 27 26 24 25 27 34 39 38 20 21 21 20 21 16 14 13
33 32 29 36 35 46 47 47 47 43 41 39 39 38 40 41 38 40 33 28 24 24 23 19 28 32 38 33 26 33 29 25 26 33 34 37 38 29 25 26 26 23 20 17 18
32 33 32 38 45 40 37 40 45 43 42 40 44 43 39 40 39 40 35 30 28 26 25 24 38 35 35 32 29 31 28 26 31 32 37 38 38 35 30 30 28 26 22 22 21
43 30 33 35 37 39 39 37 38 40 40 44 46 42 42 44 42 40 35 34 32 29 30 29 37 35 38 33 35 38 35 31 31 32 36 38 42 32 30 30 29 28 24 24 21
31 29 31 35 36 39 44 43 39 36 33 36 41 43 42 44 38 37 36 35 34 35 35 33 34 36 44 35 38 48 44 38 36 35 36 42 39 31 33 31 29 26 23 25 23
Wind_Direction
291 292 295 298 299 298 301 302 304 302 301 295 294 293 296 296 302 319 309 321 319 336 335 344 342 349 1 4 8 20 12 18 31 39 37 31 39 33 42 52 41 42 29 338 312
286 289 293 296 297 299 302 303 303 304 304 302 302 302 305 307 321 319 318 317 324 348 339 344 347 352 354 358 358 0 4 15 34 36 32 23 19 17 26 16 22 26 5 343 347
282 286 289 293 295 297 299 302 305 305 307 307 306 307 309 320 328 326 321 328 345 341 347 352 355 347 342 348 347 356 357 17 19 22 19 10 3 8 10 6 14 1 356 338 342
281 285 287 290 293 295 297 299 303 305 305 307 308 309 313 329 313 337 330 340 352 344 347 346 339 334 338 341 349 348 356 3 359 9 6 356 352 347 357 1 358 355 353 347 337
278 282 285 287 289 292 295 297 300 303 304 306 308 312 324 319 321 328 332 339 345 337 335 335 333 335 334 344 349 348 346 348 343 343 344 341 343 345 343 359 5 2 350 346 340
277 279 282 285 287 290 292 296 298 301 303 306 310 316 320 308 327 329 334 333 330 328 326 330 333 339 339 339 341 344 337 331 330 337 339 338 335 346 358 27 2 357 353 350 346
275 278 280 282 285 289 292 295 298 299 303 307 313 317 310 306 323 327 326 323 325 323 320 326 336 331 342 335 338 333 324 319 328 331 333 352 335 353 18 18 356 345 345 343 342
274 276 279 282 284 288 292 295 298 302 308 313 315 313 302 316 320 318 321 319 323 323 324 329 334 333 330 341 325 321 320 320 330 337 337 344 324 347 10 359 344 342 340 340 340
272 275 277 280 284 287 291 295 300 306 309 310 308 307 299 316 308 312 313 312 320 322 325 329 324 321 324 314 310 311 309 312 315 325 323 324 325 334 339 332 331 332 333 339 342
270 273 276 279 282 287 291 295 300 303 304 307 304 299 298 303 314 321 319 320 312 315 314 312 312 307 309 305 300 306 305 309 313 318 315 314 315 325 321 323 323 327 331 335 342
269 271 274 277 281 286 291 294 291 291 290 285 294 294 303 310 314 307 311 310 312 304 295 302 295 293 293 295 303 306 304 305 312 316 312 310 309 310 316 320 322 325 332 340 344
267 269 272 275 279 283 288 284 289 297 288 287 284 285 292 295 293 294 298 293 293 291 297 296 288 294 303 298 297 300 299 301 303 309 310 307 304 307 312 316 320 326 332 340 350
262 265 268 272 276 278 278 281 298 302 288 285 283 281 282 280 285 279 275 290 291 287 284 285 296 302 293 294 293 294 295 300 302 310 310 308 302 306 309 314 322 331 340 344 348
258 260 262 266 272 273 276 282 287 305 286 282 282 282 278 279 280 286 275 288 289 284 288 289 290 290 290 289 291 290 297 298 300 302 300 314 306 315 324 317 320 325 328 332 342
255 255 254 247 271 267 279 273 279 294 278 292 280 292 284 271 283 282 282 283 279 282 285 289 292 289 287 288 289 293 301 298 301 299 302 303 307 310 316 312 303 307 313 319 333
251 250 248 249 265 272 275 260 275 275 268 283 290 280 275 280 284 295 286 294 291 285 286 288 295 292 292 296 288 297 303 306 307 304 297 297 294 305 309 311 315 291 280 289 311
246 245 242 246 253 260 246 250 263 261 278 275 281 279 275 278 279 281 278 274 278 285 285 290 285 290 291 290 294 286 288 295 296 294 296 308 298 297 311 320 324 302 275 275 274
242 239 239 244 249 234 241 247 259 266 259 280 285 282 274 276 279 276 279 274 274 284 293 286 289 270 274 276 282 267 277 289 295 296 302 307 301 310 315 314 319 323 292 277 281
238 241 242 237 233 230 232 243 256 261 263 264 277 274 273 273 277 276 275 276 274 266 281 285 285 288 288 280 276 282 273 287 297 303 299 299 303 309 312 313 316 313 292 270 268
242 241 238 226 227 231 242 249 258 261 266 262 260 268 267 265 266 271 276 283 278 261 275 281 283 288 282 286 284 283 279 285 289 293 294 300 301 300 303 300 314 308 290 280 280
247 251 248 228 230 239 244 253 253 258 256 261 261 267 269 266 263 272 278 283 276 275 255 270 276 287 282 273 267 276 279 288 293 291 295 298 300 310 303 309 308 308 298 283 275
254 255 248 224 237 244 244 246 255 256 253 262 266 262 264 266 267 267 269 275 275 267 252 255 279 277 276 289 282 277 274 268 280 287 292 294 296 308 314 312 309 307 301 291 278
256 251 253 222 242 244 249 247 251 251 253 256 257 264 263 266 269 271 274 275 270 250 252 248 274 279 285 284 282 276 276 275 279 289 282 288 296 307 310 311 308 306 298 286 279
257 253 252 244 256 246 245 249 246 253 256 254 263 264 265 262 264 277 269 277 262 258 261 246 266 268 270 283 280 274 273 268 267 278 284 279 291 296 302 303 306 304 297 288 285
255 253 251 248 247 251 252 258 249 254 251 253 261 253 254 266 263 265 269 268 269 262 261 258 270 268 275 277 275 280 274 266 267 270 280 288 287 292 293 297 298 298 297 289 284
250 257 255 258 253 250 250 257 258 254 256 258 255 258 257 257 259 267 259 264 263 263 260 267 273 271 272 274 274 274 275 273 273 277 280 286 288 297 298 300 299 297 293 291 285
258 260 259 259 255 254 254 255 259 262 268 267 261 263 262 264 272 275 268 265 265 257 260 262 268 272 271 274 274 274 269 273 278 278 280 282 287 295 296 295 296 295 294 293 291